TimeEDT,TemperatureF,Dew PointF,Humidity,Sea Level PressureIn,VisibilityMPH,Wind Direction,Wind SpeedMPH,Gust SpeedMPH,PrecipitationIn,Events,Conditions,WindDirDegrees,DateUTC
12:53 AM,55.0,41.0,59,29.89,10.0,North,10.4,-,N/A,,Overcast,350,2013-09-22 04:53:00
1:53 AM,55.0,41.0,59,29.90,10.0,NNW,6.9,-,N/A,,Overcast,340,2013-09-22 05:53:00
2:53 AM,54.0,39.9,59,29.91,10.0,NNW,10.4,18.4,N/A,,Overcast,340,2013-09-22 06:53:00
3:53 AM,54.0,37.9,55,29.91,10.0,North,10.4,-,N/A,,Overcast,350,2013-09-22 07:53:00
4:53 AM,53.1,37.0,55,29.92,10.0,NW,8.1,-,N/A,,Overcast,320,2013-09-22 08:53:00
5:53 AM,51.1,41.0,68,29.94,10.0,North,10.4,-,N/A,,Overcast,350,2013-09-22 09:53:00
6:53 AM,48.9,42.1,77,29.95,10.0,NNW,3.5,-,N/A,,Clear,340,2013-09-22 10:53:00
7:53 AM,48.9,41.0,74,29.98,10.0,Variable,5.8,-,N/A,,Clear,0,2013-09-22 11:53:00
8:53 AM,51.1,37.9,61,29.99,10.0,NNW,8.1,-,N/A,,Clear,340,2013-09-22 12:53:00
9:53 AM,52.0,39.0,61,30.01,10.0,NNW,10.4,-,N/A,,Partly Cloudy,330,2013-09-22 13:53:00
10:53 AM,54.0,39.0,57,30.01,10.0,NW,9.2,-,N/A,,Partly Cloudy,310,2013-09-22 14:53:00
11:53 AM,57.0,37.9,49,30.02,10.0,Variable,6.9,-,N/A,,Clear,0,2013-09-22 15:53:00
12:28 PM,57.2,39.2,51,30.02,6.0,NNW,9.2,-,N/A,,Haze,340,2013-09-22 16:28:00
12:53 PM,59.0,39.0,48,30.02,2.0,West,6.9,-,N/A,,Haze,280,2013-09-22 16:53:00
1:14 PM,60.8,39.2,45,30.02,10.0,North,8.1,-,N/A,,Clear,350,2013-09-22 17:14:00
1:53 PM,61.0,39.9,46,30.01,10.0,North,4.6,-,N/A,,Clear,10,2013-09-22 17:53:00
2:53 PM,62.1,39.9,44,30.00,3.0,North,5.8,-,N/A,,Mostly Cloudy,10,2013-09-22 18:53:00
3:32 PM,60.8,41.0,48,30.00,10.0,North,10.4,-,N/A,,Overcast,10,2013-09-22 19:32:00
3:53 PM,59.0,41.0,51,30.01,10.0,NNE,8.1,-,N/A,,Overcast,20,2013-09-22 19:53:00
4:53 PM,57.9,41.0,53,30.01,10.0,North,9.2,-,N/A,,Overcast,360,2013-09-22 20:53:00
5:53 PM,57.9,41.0,53,30.02,10.0,NNE,6.9,-,N/A,,Overcast,20,2013-09-22 21:53:00
6:53 PM,55.9,39.0,53,30.04,10.0,North,9.2,-,N/A,,Overcast,360,2013-09-22 22:53:00
7:53 PM,54.0,42.1,64,30.06,10.0,North,8.1,-,N/A,,Overcast,10,2013-09-22 23:53:00
8:53 PM,53.1,42.1,66,30.08,10.0,NE,5.8,-,N/A,,Overcast,40,2013-09-23 00:53:00
9:53 PM,53.1,42.1,66,30.09,10.0,NNE,4.6,-,N/A,,Overcast,20,2013-09-23 01:53:00
10:53 PM,52.0,39.9,63,30.09,10.0,NE,5.8,-,N/A,,Overcast,40,2013-09-23 02:53:00
11:53 PM,50.0,41.0,71,30.11,10.0,North,5.8,-,N/A,,Clear,10,2013-09-23 03:53:00